| time (UTC) | temp F | wind direction | speed knots | gust knots | rain 1hr in | rain 24hr in | rain mn in | humidity % | barometer mb |
| 20260506004516 | 56 | 0 | 5.2 | 13.0 | 0.00 | 0.00 | 0.00 | 40 | 1006.9 |
| 20260506003015 | 56 | 0 | 4.3 | 13.0 | 0.00 | 0.00 | 0.00 | 40 | 1005.9 |
| 20260506001535 | 57 | 0 | 7.0 | 14.8 | 0.00 | 0.00 | 0.00 | 39 | 1005.8 |
| 20260506000035 | 59 | 0 | 5.2 | 13.0 | 0.00 | 0.00 | 0.00 | 38 | 1006.2 |
| 20260505234515 | 59 | 0 | 6.1 | 13.9 | 0.00 | 0.00 | 0.00 | 41 | 1006.3 |
| 20260505233017 | 59 | 0 | 6.1 | 14.8 | 0.00 | 0.00 | 0.00 | 41 | 1006.6 |
| 20260505231517 | 59 | 0 | 7.8 | 15.6 | 0.00 | 0.00 | 0.00 | 41 | 1006.9 |
| 20260505230017 | 60 | 0 | 6.1 | 13.9 | 0.00 | 0.00 | 0.00 | 39 | 1006.2 |
| 20260505224517 | 60 | 0 | 4.3 | 12.2 | 0.00 | 0.00 | 0.00 | 38 | 1006.8 |
| 20260505223017 | 59 | 0 | 5.2 | 13.9 | 0.00 | 0.00 | 0.00 | 44 | 1006.5 |
| 20260505221517 | 58 | 0 | 5.2 | 15.6 | 0.00 | 0.00 | 0.00 | 44 | 1007.0 |
| 20260505220037 | 62 | 0 | 4.3 | 16.5 | 0.00 | 0.00 | 0.00 | 37 | 1007.5 |
| 20260505214517 | 60 | 0 | 4.3 | 13.9 | 0.00 | 0.00 | 0.00 | 42 | 1007.4 |
| 20260505213017 | 59 | 0 | 5.2 | 11.3 | 0.00 | 0.00 | 0.00 | 44 | 1007.0 |
| 20260505211517 | 57 | 23 | 7.8 | 14.8 | 0.00 | 0.00 | 0.00 | 47 | 1007.0 |
| 20260505210017 | 56 | 23 | 5.2 | 12.2 | 0.00 | 0.00 | 0.00 | 49 | 1007.3 |
| 20260505204517 | 55 | 0 | 4.3 | 10.4 | 0.00 | 0.00 | 0.00 | 51 | 1007.6 |
| 20260505203017 | 55 | 0 | 7.0 | 13.0 | 0.00 | 0.00 | 0.00 | 54 | 1008.1 |
| 20260505201517 | 53 | 0 | 7.0 | 19.1 | 0.00 | 0.00 | 0.00 | 56 | 1008.5 |
| 20260505200016 | 54 | 0 | 4.3 | 11.3 | 0.00 | 0.00 | 0.00 | 53 | 1008.0 |
| 20260505194516 | 55 | 0 | 1.7 | 8.7 | 0.00 | 0.00 | 0.00 | 50 | 1008.1 |
| 20260505193036 | 57 | 0 | 4.3 | 11.3 | 0.00 | 0.00 | 0.00 | 48 | 1008.5 |
| 20260505191536 | 61 | 0 | 3.5 | 9.6 | 0.00 | 0.00 | 0.00 | 43 | 1008.5 |
| 20260505190016 | 60 | 0 | 5.2 | 13.0 | 0.00 | 0.00 | 0.00 | 48 | 1008.1 |
| 20260505184517 | 60 | 0 | 6.1 | 13.0 | 0.00 | 0.00 | 0.00 | 43 | 1008.0 |
| 20260505183017 | 59 | 0 | 2.6 | 9.6 | 0.00 | 0.00 | 0.00 | 44 | 1008.3 |
| 20260505181516 | 57 | 0 | 0.9 | 7.0 | 0.00 | 0.00 | 0.00 | 46 | 1008.1 |
| 20260505180016 | 57 | 0 | 0.9 | 5.2 | 0.00 | 0.00 | 0.00 | 45 | 1008.2 |
| 20260505174516 | 56 | 0 | 1.7 | 7.0 | 0.00 | 0.00 | 0.00 | 45 | 1008.2 |
| 20260505173017 | 57 | 0 | 1.7 | 7.8 | 0.00 | 0.00 | 0.00 | 43 | 1009.0 |
| 20260505171516 | 57 | 0 | 2.6 | 6.1 | 0.00 | 0.00 | 0.00 | 44 | 1009.3 |
| 20260505170016 | 54 | 0 | 1.7 | 8.7 | 0.00 | 0.00 | 0.00 | 48 | 1008.7 |
| 20260505164516 | 53 | 0 | 2.6 | 6.1 | 0.00 | 0.00 | 0.00 | 48 | 1008.8 |
| 20260505163016 | 51 | 0 | 3.5 | 7.8 | 0.00 | 0.00 | 0.00 | 52 | 1009.5 |
| 20260505161516 | 50 | 0 | 4.3 | 12.2 | 0.00 | 0.00 | 0.00 | 54 | 1009.4 |
| 20260505153036 | 50 | 0 | 7.8 | 17.4 | 0.00 | 0.00 | 0.00 | 56 | 1010.2 |
| 20260505151516 | 50 | 0 | 7.0 | 13.0 | 0.00 | 0.00 | 0.00 | 55 | 1009.7 |
| 20260505124515 | 53 | 0 | 4.3 | 9.6 | 0.00 | 0.00 | 0.00 | 39 | 1009.4 |
| 20260505123015 | 52 | 0 | 2.6 | 7.8 | 0.00 | 0.00 | 0.00 | 40 | 1009.8 |
| 20260505121516 | 51 | 0 | 1.7 | 3.5 | 0.00 | 0.00 | 0.00 | 39 | 1009.4 |
| 20260505120015 | 51 | 0 | 1.7 | 5.2 | 0.00 | 0.00 | 0.00 | 38 | 1008.9 |
| 20260505114556 | 52 | 0 | 0.9 | 3.5 | 0.00 | 0.00 | 0.00 | 37 | 1008.8 |
| 20260505113015 | 53 | 0 | 1.7 | 5.2 | 0.00 | 0.00 | 0.00 | 36 | 1008.8 |
| 20260505111515 | 53 | 0 | 1.7 | 5.2 | 0.00 | 0.00 | 0.00 | 36 | 1009.2 |
| 20260505101516 | 54 | 0 | 4.3 | 9.6 | 0.00 | 0.00 | 0.00 | 34 | 1008.7 |
| 20260505100015 | 53 | 0 | 3.5 | 8.7 | 0.00 | 0.00 | 0.00 | 34 | 1008.7 |
| 20260505094517 | 54 | 0 | 3.5 | 10.4 | 0.00 | 0.00 | 0.00 | 32 | 1008.2 |
| 20260505093017 | 54 | 0 | 3.5 | 10.4 | 0.00 | 0.00 | 0.00 | 29 | 1008.4 |
| 20260505091537 | 55 | 0 | 3.5 | 8.7 | 0.00 | 0.00 | 0.00 | 32 | 1008.7 |
| 20260505090017 | 55 | 0 | 3.5 | 8.7 | 0.00 | 0.00 | 0.00 | 32 | 1008.9 |
| 20260505084517 | 56 | 0 | 5.2 | 13.9 | 0.00 | 0.00 | 0.00 | 31 | 1008.7 |
| 20260505083017 | 56 | 0 | 4.3 | 12.2 | 0.00 | 0.00 | 0.00 | 30 | 1008.8 |
| 20260505081517 | 57 | 0 | 2.6 | 10.4 | 0.00 | 0.00 | 0.00 | 29 | 1008.8 |
| 20260505080017 | 57 | 0 | 5.2 | 13.0 | 0.00 | 0.00 | 0.00 | 29 | 1008.9 |
| 20260505074517 | 57 | 0 | 3.5 | 13.9 | 0.00 | 0.00 | 0.00 | 28 | 1008.7 |
| 20260505073017 | 58 | 0 | 4.3 | 17.4 | 0.00 | 0.00 | 0.00 | 28 | 1008.9 |
| 20260505071517 | 58 | 0 | 1.7 | 12.2 | 0.00 | 0.00 | 0.00 | 28 | 1009.0 |
| 20260505070017 | 59 | 0 | 4.3 | 12.2 | 0.00 | 0.00 | 0.00 | 27 | 1009.3 |
| 20260505064517 | 59 | 0 | 1.7 | 12.2 | 0.00 | 0.00 | 0.00 | 25 | 1009.2 |
| 20260505063057 | 60 | 0 | 3.5 | 15.6 | 0.00 | 0.00 | 0.00 | 25 | 1008.8 |
| 20260505061517 | 60 | 0 | 5.2 | 15.6 | 0.00 | 0.00 | 0.00 | 25 | 1009.1 |
| 20260505060017 | 60 | 0 | 5.2 | 13.0 | 0.00 | 0.00 | 0.00 | 24 | 1008.5 |
| 20260505054517 | 61 | 0 | 6.1 | 13.9 | 0.00 | 0.00 | 0.00 | 24 | 1008.8 |
| 20260505053017 | 61 | 0 | 6.1 | 13.0 | 0.00 | 0.00 | 0.00 | 23 | 1008.4 |
| 20260505051517 | 61 | 0 | 5.2 | 12.2 | 0.00 | 0.00 | 0.00 | 23 | 1008.3 |
| 20260505041517 | 63 | 0 | 7.8 | 14.8 | 0.00 | 0.00 | 0.00 | 23 | 1008.6 |
| 20260505040017 | 63 | 0 | 8.7 | 16.5 | 0.00 | 0.00 | 0.00 | 23 | 1008.0 |
| 20260505034517 | 63 | 0 | 7.8 | 15.6 | 0.00 | 0.00 | 0.00 | 23 | 1007.8 |
| 20260505033017 | 63 | 0 | 10.4 | 19.1 | 0.00 | 0.00 | 0.00 | 22 | 1007.6 |
| 20260505031517 | 63 | 0 | 8.7 | 16.5 | 0.00 | 0.00 | 0.00 | 22 | 1007.4 |
| 20260505030016 | 64 | 0 | 9.6 | 18.2 | 0.00 | 0.00 | 0.00 | 21 | 1008.2 |
| 20260505024517 | 64 | 0 | 7.0 | 14.8 | 0.00 | 0.00 | 0.00 | 21 | 1008.2 |
| 20260505023017 | 65 | 0 | 6.1 | 13.0 | 0.00 | 0.00 | 0.00 | 22 | 1007.7 |
| 20260505021516 | 65 | 0 | 4.3 | 11.3 | 0.00 | 0.00 | 0.00 | 21 | 1008.1 |
| 20260505020017 | 65 | 0 | 7.8 | 15.6 | 0.00 | 0.00 | 0.00 | 20 | 1007.6 |
| 20260505014516 | 66 | 0 | 5.2 | 13.0 | 0.00 | 0.00 | 0.00 | 19 | 1007.7 |
| 20260505013017 | 66 | 0 | 5.2 | 13.0 | 0.00 | 0.00 | 0.00 | 18 | 1006.3 |
| 20260505011517 | 66 | 0 | 4.3 | 12.2 | 0.00 | 0.00 | 0.00 | 17 | 1006.2 |
| 20260505010017 | 67 | 0 | 6.1 | 14.8 | 0.00 | 0.00 | 0.00 | 16 | 1007.5 |